Find Starlink 30700

NORAD ID: 57953 Int'l Des: 2023-148 Owner: SPXS Country: US Constellation: starlink operational
LEOCIRCULAR

現在のビュー

3D地球を読み込み中...

About Starlink 30700

Starlink 30700 (NORAD 57953) is a starlink constellation satellite (v2 mini) launched Sep 25, 2023 by SPXS of US. It operates in LEO, CIRCULAR orbit with a mass of 730.00 kg.

Starlink 30700について

説明を読み込み中...

次回通過

Passes for default location (London). Set your location on the main map for personalized predictions.

高度履歴

Loading altitude history...

軌道要素

1 57953U 23148U 26175.90274066 .00000689 00000-0 35381-4 0 9999
2 57953 53.1598 236.2145 0001161 84.6541 275.4592 15.30196955154976
Epoch: Jun 24, 2026 • Age: 20 hours

現在のステータス

高度 481.5 km
速度 7.62 km/s
衛星直下点 -21.10°S, 32.78°E
打ち上げ日 Sep 25, 2023
運用期間 2.7 years
タイプ internet

技術仕様

分類 Payload
質量 730.00 kg
乾燥質量 700.00 kg
総質量 730.00 kg
長さ 0.30 m
直径 4.10 m
スパン 29.00 m
形状 Box + pan
製造者 SPXS
バスタイプ Starlink V2M
フェーズステータス In Orbit
所有者/国 SPXS/US

Most Searched